Weather History for KBTR - May, 2014

Change the Weather History Date:

Thursday, May 8, 2014

  Actual Average Record
Temperature  
Mean Temperature 79 °F 74 °F  
Max Temperature 89 °F 85 °F 96 °F (1922)
Min Temperature 69 °F 63 °F 46 °F (1992)
Degree Days  
Heating Degree Days 0 0  
Month to date heating degree days 3 0  
Since 1 July heating degree days 1981 1553  
Cooling Degree Days 14 9  
Month to date cooling degree days 58 65  
Year to date cooling degree days 271 296  
Growing Degree Days 28 (Base 50)    
Moisture  
Dew Point 66 °F    
Average Humidity 69    
Maximum Humidity 97    
Minimum Humidity 40    
Precipitation  
Precipitation 0.00 in 0.16 in 8.10 in (1907)
Month to date precipitation T 1.20  
Year to date precipitation 16.02 20.83  
Snow  
Snow 0.00 in - - ()
Month to date snowfall 0.0  
Since 1 July snowfall 0.4  
Snow Depth 0.00 in    
Sea Level Pressure  
Sea Level Pressure 30.03 in    
Wind  
Wind Speed 10 mph (SE)    
Max Wind Speed 20 mph    
Max Gust Speed 26 mph    
Visibility 8 miles    
Events      
T = Trace of Precipitation, MM = Missing Value Source: NWS Daily Summary

Daily Weather History Graph

Daily Weather History Graph

Search for Another Location

Airport or City:

Trip Planner

Search our weather history database for the weather conditions in past years. The results will help you decide how hot, cold, wet, or windy it might be!

Date:

Astronomy

May. 08, 2014 Rise Set
Actual Time 6:15 AM CDT 7:47 PM CDT
Civil Twilight 5:49 AM CDT 8:13 PM CDT
Nautical Twilight 5:18 AM CDT 8:44 PM CDT
Astronomical Twilight 4:45 AM CDT 9:17 PM CDT
Moon 2:12 PM CDT (5/8) 2:20 AM CDT (5/8)
Length of Visible Light 14h 24m
Length of Day
13h 32m
Waxing Gibbous, 65% of the Moon is Illuminated
May 8
Waxing Gibbous
May 14
Full
May 21
Last Quarter
May 28
New
Jun 5
First Quarter

Hourly Weather History & Observations

Time (CDT) Temp. Heat Index Dew Point Humidity Pressure Visibility Wind Dir Wind Speed Gust Speed Precip Events Conditions
12:53 AM 73.0 °F - 66.9 °F 81% 30.01 in 10.0 mi SE 9.2 mph - N/A   Clear
1:53 AM 73.4 °F - 68.0 °F 83% 30.01 in 10.0 mi SE 8.1 mph - N/A   Clear
2:53 AM 72.0 °F - 68.0 °F 87% 30.01 in 10.0 mi SE 6.9 mph - N/A   Clear
3:53 AM 70.0 °F - 66.0 °F 87% 30.03 in 6.0 mi ENE 4.6 mph - N/A   Clear
4:53 AM 69.1 °F - 66.0 °F 90% 30.03 in 6.0 mi East 4.6 mph - N/A   Clear
5:20 AM 69.1 °F - 66.0 °F 90% 30.03 in 5.0 mi East 4.6 mph - N/A   Scattered Clouds
5:30 AM 69.1 °F - 66.0 °F 90% 30.02 in 5.0 mi East 5.8 mph - N/A   Mostly Cloudy
5:53 AM 69.1 °F - 66.9 °F 93% 30.02 in 4.0 mi East 5.8 mph - N/A   Overcast
6:53 AM 70.0 °F - 68.0 °F 93% 30.05 in 2.5 mi East 8.1 mph - N/A   Overcast
7:01 AM 71.1 °F - 68.0 °F 90% 30.05 in 3.0 mi ESE 6.9 mph - N/A   Overcast
7:37 AM 72.0 °F - 69.1 °F 91% 30.06 in 5.0 mi SE 6.9 mph - N/A   Overcast
7:53 AM 72.0 °F - 69.1 °F 91% 30.06 in 6.0 mi ESE 5.8 mph - N/A   Overcast
8:42 AM 75.9 °F - 69.1 °F 79% 30.06 in 10.0 mi SE 8.1 mph - N/A   Overcast
8:53 AM 75.9 °F - 69.1 °F 79% 30.06 in 10.0 mi SE 8.1 mph - N/A   Overcast
9:20 AM 77.0 °F - 68.0 °F 74% 30.07 in 10.0 mi SSE 10.4 mph - N/A   Mostly Cloudy
9:43 AM 79.0 °F - 66.9 °F 66% 30.06 in 10.0 mi SSE 12.7 mph - N/A   Mostly Cloudy
9:53 AM 80.6 °F 83.2 °F 68.0 °F 65% 30.06 in 10.0 mi SSE 9.2 mph - N/A   Mostly Cloudy
10:00 AM 82.0 °F 84.5 °F 66.9 °F 60% 30.06 in 10.0 mi SSE 10.4 mph - N/A   Scattered Clouds
10:53 AM 84.9 °F 86.6 °F 64.9 °F 51% 30.06 in 10.0 mi SSE 11.5 mph - N/A   Partly Cloudy
11:53 AM 87.1 °F 88.3 °F 64.0 °F 46% 30.04 in 10.0 mi SE 16.1 mph - N/A   Mostly Cloudy
12:53 PM 87.8 °F 87.6 °F 60.8 °F 40% 30.03 in 10.0 mi SE 13.8 mph - N/A   Scattered Clouds
1:53 PM 88.0 °F 87.9 °F 61.0 °F 40% 30.02 in 10.0 mi South 11.5 mph - N/A   Mostly Cloudy
2:53 PM 88.0 °F 87.6 °F 60.1 °F 39% 30.01 in 10.0 mi SSE 12.7 mph - N/A   Mostly Cloudy
3:53 PM 87.8 °F 88.5 °F 62.6 °F 43% 30.00 in 10.0 mi SSE 15.0 mph 23.0 mph N/A   Overcast
4:53 PM 87.1 °F 88.3 °F 64.0 °F 46% 29.99 in 10.0 mi SSE 12.7 mph - N/A   Scattered Clouds
5:53 PM 84.0 °F 85.4 °F 64.0 °F 51% 29.99 in 10.0 mi SSE 16.1 mph - N/A   Mostly Cloudy
6:53 PM 82.9 °F 84.0 °F 63.0 °F 51% 30.00 in 10.0 mi SSE 13.8 mph 20.7 mph N/A   Mostly Cloudy
7:53 PM 81.0 °F 82.2 °F 63.0 °F 54% 30.00 in 10.0 mi SSE 13.8 mph - N/A   Mostly Cloudy
8:53 PM 80.1 °F 81.9 °F 64.9 °F 60% 30.00 in 10.0 mi SSE 10.4 mph - N/A   Clear
9:53 PM 79.0 °F - 66.9 °F 66% 30.00 in 10.0 mi SE 10.4 mph 19.6 mph N/A   Clear
10:53 PM 78.1 °F - 68.0 °F 71% 30.01 in 10.0 mi SE 11.5 mph - N/A   Partly Cloudy
11:53 PM 77.0 °F - 69.1 °F 76% 30.01 in 10.0 mi SE 10.4 mph - N/A   Scattered Clouds